EW9147 Weather Reports


Display with metric or nautical units.
time (UTC)temp
F
wind
direction
speed
MPH
gust
MPH
rain 1hr
in
rain 24hr
in
rain mn
in
humidity
%
barometer
mb
20190425182322 64 283 3.0 8.0 0.00 0.00 0.00 80 1015.5
20190425180821 63 251 2.0 9.0 0.00 0.00 0.00 79 1015.6
20190425175318 63 252 2.0 8.0 0.00 0.00 0.00 79 1015.5
20190425173813 62 263 3.0 8.0 0.00 0.00 0.00 80 1015.5
20190425172313 62 282 3.0 7.0 0.00 0.00 0.00 81 1015.4
20190425170813 62 234 3.0 7.0 0.00 0.00 0.00 80 1015.3
20190425165313 62 344 3.0 5.0 0.00 0.00 0.00 79 1015.2
20190425163806 61 255 1.0 4.0 0.00 0.00 0.00 80 1015.2
20190425162303 60 286 1.0 4.0 0.00 0.00 0.00 81 1015.2
20190425160801 60 299 1.0 4.0 0.00 0.00 0.00 82 1015.2
20190425155300 60 240 0.0 2.0 0.00 0.00 0.00 82 1015.2
20190425153759 59 285 1.0 3.0 0.00 0.00 0.00 83 1015.3
20190425152256 58 301 0.0 3.0 0.00 0.00 0.00 84 1015.3
20190425150754 58 22 0.0 3.0 0.00 0.00 0.00 84 1015.3
20190425145253 57 50 0.0 2.0 0.00 0.00 0.00 85 1015.2
20190425143749 56 291 2.0 4.0 0.00 0.00 0.00 85 1015.2
20190425142248 56 330 0.0 3.0 0.00 0.00 0.00 87 1015.2
20190425140749 55 296 0.0 2.0 0.00 0.00 0.00 88 1015.0
20190425135244 54 329 0.0 0.0 0.00 0.00 0.00 89 1014.8
20190425133745 54 320 0.0 0.0 0.00 0.00 0.00 89 1014.7
20190425132243 54 19 0.0 0.0 0.00 0.00 0.00 88 1014.6
20190425130740 54 18 0.0 3.0 0.00 0.00 0.00 89 1014.5
20190425125242 54 314 0.0 2.0 0.00 0.00 0.00 89 1014.5
20190425123742 54 327 0.0 2.0 0.00 0.00 0.00 89 1014.4
20190425122239 54 334 0.0 2.0 0.00 0.00 0.00 89 1014.3
20190425120740 54 311 1.0 3.0 0.00 0.00 0.00 89 1014.4
20190425115236 54 336 0.0 2.0 0.00 0.00 0.00 88 1014.3
20190425113737 54 317 0.0 2.0 0.00 0.00 0.00 88 1014.3
20190425112235 54 338 1.0 2.0 0.00 0.00 0.00 88 1014.3
20190425110736 54 312 1.0 4.0 0.00 0.00 0.00 88 1014.3
20190425105233 54 331 0.0 3.0 0.00 0.00 0.00 88 1014.3
20190425103730 54 289 1.0 3.0 0.00 0.00 0.00 88 1014.3
20190425102231 54 309 1.0 4.0 0.00 0.00 0.00 87 1014.3
20190425100729 55 306 3.0 5.0 0.00 0.00 0.00 87 1014.3
20190425095229 55 293 1.0 5.0 0.00 0.00 0.00 87 1014.3
20190425093728 55 297 2.0 6.0 0.00 0.00 0.00 87 1014.3
20190425092336 55 304 2.0 5.0 0.00 0.00 0.00 87 1014.3
20190425090723 55 344 2.0 5.0 0.00 0.00 0.00 86 1014.3
20190425085224 55 309 2.0 5.0 0.00 0.00 0.00 86 1014.3
20190425083721 55 321 3.0 6.0 0.00 0.00 0.00 87 1014.4
20190425082221 56 309 3.0 8.0 0.00 0.00 0.00 86 1014.4
20190425080720 56 302 2.0 5.0 0.00 0.00 0.00 86 1014.5
20190425075218 56 329 2.0 6.0 0.00 0.00 0.00 86 1014.5
20190425073717 56 314 2.0 6.0 0.00 0.00 0.00 85 1014.5
20190425072213 57 319 2.0 5.0 0.00 0.00 0.00 85 1014.4
20190425070714 57 338 3.0 5.0 0.00 0.00 0.00 85 1014.4
20190425065212 57 318 2.0 6.0 0.00 0.00 0.00 85 1014.4
20190425063708 57 317 4.0 8.0 0.00 0.00 0.00 84 1014.4
20190425062209 58 339 3.0 8.0 0.00 0.00 0.00 83 1014.4
20190425060706 58 283 3.0 7.0 0.00 0.00 0.00 83 1014.2
20190425055204 59 319 1.0 5.0 0.00 0.00 0.00 83 1014.3
20190425053702 59 276 3.0 7.0 0.00 0.00 0.00 82 1014.2
20190425052200 59 295 2.0 8.0 0.00 0.00 0.00 82 1014.3
20190425050701 60 311 2.0 4.0 0.00 0.00 0.00 80 1014.2
20190425045158 61 303 3.0 6.0 0.00 0.00 0.00 80 1014.1
20190425043659 61 296 2.0 8.0 0.00 0.00 0.00 81 1014.0
20190425042158 61 298 3.0 7.0 0.00 0.00 0.00 81 1013.8
20190425040656 61 277 5.0 8.0 0.00 0.00 0.00 79 1013.6
20190425035158 61 308 4.0 10.0 0.00 0.00 0.00 78 1013.4
20190425033655 62 261 4.0 8.0 0.00 0.00 0.00 76 1013.3
20190425032158 63 312 3.0 8.0 0.00 0.00 0.00 77 1013.2
20190425030658 62 320 4.0 8.0 0.00 0.00 0.00 76 1013.2
20190425025154 63 298 4.0 9.0 0.00 0.00 0.00 76 1013.2
20190425023652 63 273 5.0 12.0 0.00 0.00 0.00 74 1013.0
20190425022151 65 310 4.0 9.0 0.00 0.00 0.00 73 1013.0
20190425020652 66 243 5.0 10.0 0.00 0.00 0.00 72 1012.9
20190425015148 68 294 4.0 8.0 0.00 0.00 0.00 68 1012.9
20190425013651 68 333 3.0 9.0 0.00 0.00 0.00 67 1012.8
20190425012146 69 309 7.0 11.0 0.00 0.00 0.00 65 1013.0
20190425010647 69 304 6.0 11.0 0.00 0.00 0.00 67 1013.1
20190425005146 70 322 8.0 12.0 0.00 0.00 0.00 65 1013.1
20190425003647 71 302 6.0 13.0 0.00 0.00 0.00 63 1013.1
20190425002146 71 315 8.0 15.0 0.00 0.00 0.00 63 1013.0
20190425000648 71 273 10.0 16.0 0.00 0.00 0.00 65 1013.1
20190424235142 72 300 8.0 13.0 0.00 0.00 0.00 66 1013.2
20190424233641 74 292 9.0 13.0 0.00 0.00 0.00 62 1013.1
20190424232143 76 289 9.0 13.0 0.00 0.00 0.00 56 1013.2
20190424230641 75 276 9.0 15.0 0.00 0.00 0.00 55 1013.2
20190424225138 75 319 8.0 15.0 0.00 0.00 0.00 57 1013.4
20190424223635 76 293 10.0 18.0 0.00 0.00 0.00 56 1013.6
20190424222132 76 289 10.0 15.0 0.00 0.00 0.00 57 1013.7
20190424220633 77 291 9.0 17.0 0.00 0.00 0.00 53 1013.7
20190424215130 76 284 10.0 14.0 0.00 0.00 0.00 53 1013.8
20190424213631 77 318 8.0 15.0 0.00 0.00 0.00 55 1014.0
20190424212129 77 279 9.0 14.0 0.00 0.00 0.00 54 1014.0
20190424210632 77 297 7.0 15.0 0.00 0.00 0.00 55 1014.2
20190424205128 77 267 9.0 15.0 0.00 0.00 0.00 53 1014.2
20190424203628 78 294 8.0 13.0 0.00 0.00 0.00 50 1014.3
20190424202128 78 315 5.0 13.0 0.00 0.00 0.00 53 1014.4
20190424200622 76 298 5.0 9.0 0.00 0.00 0.00 55 1014.3
20190424195123 76 298 2.0 8.0 0.00 0.00 0.00 59 1014.4
20190424193617 74 291 4.0 8.0 0.00 0.00 0.00 64 1014.6
20190424192116 74 284 3.0 8.0 0.00 0.00 0.00 65 1014.8
20190424190616 73 281 4.0 9.0 0.00 0.00 0.00 68 1014.9
20190424185117 73 234 3.0 8.0 0.00 0.00 0.00 68 1015.0
20190424183615 73 284 4.0 8.0 0.00 0.00 0.00 69 1015.0